TimeEST,TemperatureF,Dew PointF,Humidity,Sea Level PressureIn,VisibilityMPH,Wind Direction,Wind SpeedMPH,Gust SpeedMPH,PrecipitationIn,Events,Conditions,WindDirDegrees,DateUTC
12:54 AM,48.2,48.2,100,29.97,0.1,Calm,Calm,-,N/A,Fog,Fog,0,2013-01-14 05:54:00
1:54 AM,48.0,48.0,100,29.98,0.1,Calm,Calm,-,N/A,Fog,Fog,0,2013-01-14 06:54:00
2:33 AM,48.2,48.2,100,29.98,0.1,Calm,Calm,-,N/A,Fog,Fog,0,2013-01-14 07:33:00
2:43 AM,48.2,48.2,100,29.99,0.5,Calm,Calm,-,N/A,Fog,Fog,0,2013-01-14 07:43:00
2:54 AM,48.0,48.0,100,30.00,0.2,NW,3.5,-,N/A,Fog,Fog,310,2013-01-14 07:54:00
3:24 AM,48.2,46.4,93,29.98,0.2,Calm,Calm,-,N/A,Fog,Fog,0,2013-01-14 08:24:00
3:46 AM,48.2,46.4,93,29.96,3.0,ESE,5.8,-,N/A,,Mostly Cloudy,110,2013-01-14 08:46:00
3:54 AM,48.0,48.0,100,29.95,0.2,SE,6.9,-,N/A,Fog,Fog,130,2013-01-14 08:54:00
4:12 AM,48.2,48.2,100,29.94,2.5,Calm,Calm,-,N/A,,Mostly Cloudy,0,2013-01-14 09:12:00
4:54 AM,48.2,48.2,100,29.96,4.0,Calm,Calm,-,N/A,,Overcast,0,2013-01-14 09:54:00
5:19 AM,48.2,48.2,100,29.98,5.0,Calm,Calm,-,0.00,,Overcast,0,2013-01-14 10:19:00
5:54 AM,48.9,48.9,100,29.98,5.0,SE,3.5,-,0.00,,Overcast,130,2013-01-14 10:54:00
6:54 AM,48.0,48.0,100,30.01,5.0,Calm,Calm,-,N/A,,Overcast,0,2013-01-14 11:54:00
7:54 AM,50.0,48.9,96,30.06,4.0,NW,4.6,-,N/A,,Overcast,320,2013-01-14 12:54:00
8:45 AM,50.0,50.0,100,30.08,3.0,Calm,Calm,-,N/A,,Overcast,0,2013-01-14 13:45:00
8:54 AM,51.1,50.0,96,30.09,5.0,Calm,Calm,-,N/A,,Overcast,0,2013-01-14 13:54:00
9:31 AM,55.4,55.4,100,30.11,6.0,NW,8.1,-,N/A,,Overcast,320,2013-01-14 14:31:00
9:54 AM,57.9,54.0,87,30.13,9.0,NW,4.6,-,N/A,,Overcast,310,2013-01-14 14:54:00
10:54 AM,57.0,50.0,77,30.15,10.0,NW,5.8,-,N/A,,Overcast,310,2013-01-14 15:54:00
11:54 AM,55.9,48.0,75,30.15,10.0,NW,4.6,-,N/A,,Overcast,320,2013-01-14 16:54:00
12:54 PM,55.9,44.1,64,30.13,10.0,NNW,4.6,-,N/A,,Overcast,330,2013-01-14 17:54:00
1:54 PM,54.0,41.0,62,30.14,10.0,NNW,8.1,-,N/A,,Overcast,330,2013-01-14 18:54:00
2:54 PM,53.1,39.9,61,30.16,10.0,Variable,6.9,-,0.00,Rain,Light Rain,0,2013-01-14 19:54:00
3:54 PM,52.0,39.9,63,30.19,10.0,NNE,4.6,-,0.00,Rain,Light Rain,20,2013-01-14 20:54:00
4:54 PM,51.8,41.0,67,30.18,10.0,Variable,5.8,-,N/A,,Overcast,0,2013-01-14 21:54:00
5:54 PM,51.1,37.0,59,30.22,10.0,NW,5.8,-,N/A,,Overcast,320,2013-01-14 22:54:00
6:54 PM,50.0,34.0,54,30.25,10.0,NW,4.6,-,N/A,,Overcast,320,2013-01-14 23:54:00
7:54 PM,48.9,33.1,54,30.26,10.0,NNW,8.1,-,N/A,,Overcast,330,2013-01-15 00:54:00
8:54 PM,45.0,36.0,71,30.28,9.0,NNW,6.9,-,0.01,Rain,Light Rain,330,2013-01-15 01:54:00
9:54 PM,43.0,37.9,82,30.27,8.0,NW,6.9,-,0.03,Rain,Light Rain,320,2013-01-15 02:54:00
10:54 PM,41.0,37.0,86,30.30,6.0,NW,8.1,-,0.05,Rain,Light Rain,320,2013-01-15 03:54:00
11:54 PM,41.0,37.9,89,30.28,5.0,North,8.1,-,0.06,Rain,Light Rain,350,2013-01-15 04:54:00